Terminal Aerodrome Forecast
Issued by NWS Portland, ME

Home | Current Version | Previous Version | Text Only | Print | Product List | Glossary On
Versions: 1 2 3 4 5 6 7 8 9 10 11 12 13 14 15 16 17 18 19 20
000
FTUS41 KGYX 030854 AAA
TAFPWM
TAF AMD
KPWM 030854Z 0309/0406 20006KT P6SM FEW100
     FM031600 18012G20KT P6SM SCT200
     FM032300 20008KT P6SM SCT070 BKN200=

USA.gov is the U.S. government's official web portal to all federal, state and local government web resources and services.